Time,TemperatureF,DewpointF,PressureIn,WindDirection,WindDirectionDegrees,WindSpeedMPH,WindSpeedGustMPH,Humidity,HourlyPrecipIn,Conditions,Clouds,dailyrainin,SoftwareType,DateUTC
2013-07-27 00:02:00,68.0,54.0,-100.00,NNE,15,1.0,2.0,60,-99.99,,,-99.99,,2013-07-27 07:02:00,
2013-07-27 00:33:00,67.0,54.0,-100.00,NW,313,1.0,2.0,62,-99.99,,,-99.99,,2013-07-27 07:33:00,
2013-07-27 00:52:00,66.0,54.0,-100.00,North,349,1.0,2.0,65,-99.99,,,-99.99,,2013-07-27 07:52:00,
2013-07-27 01:02:00,67.0,54.0,-100.00,North,354,1.0,2.0,64,-99.99,,,-99.99,,2013-07-27 08:02:00,
2013-07-27 01:12:00,66.0,53.0,-100.00,ENE,60,1.0,2.0,64,-99.99,,,-99.99,,2013-07-27 08:12:00,
2013-07-27 01:21:00,65.0,53.0,-100.00,West,261,1.0,1.0,66,-99.99,,,-99.99,,2013-07-27 08:21:00,
2013-07-27 01:32:00,65.0,54.0,-100.00,WNW,296,1.0,1.0,67,-99.99,,,-99.99,,2013-07-27 08:32:00,
2013-07-27 01:43:00,64.0,54.0,-100.00,NNW,347,2.0,3.0,70,-99.99,,,-99.99,,2013-07-27 08:43:00,
2013-07-27 01:53:00,64.0,54.0,-100.00,NW,320,1.0,2.0,69,-99.99,,,-99.99,,2013-07-27 08:53:00,
2013-07-27 02:01:00,64.0,54.0,-100.00,NW,320,1.0,2.0,69,-99.99,,,-99.99,,2013-07-27 09:01:00,
2013-07-27 02:11:00,64.0,53.0,-100.00,NW,324,1.0,2.0,68,-99.99,,,-99.99,,2013-07-27 09:11:00,
2013-07-27 02:22:00,63.0,53.0,-100.00,NE,45,1.0,2.0,70,-99.99,,,-99.99,,2013-07-27 09:22:00,
2013-07-27 02:33:00,61.0,52.0,-100.00,ENE,59,0.0,1.0,73,-99.99,,,-99.99,,2013-07-27 09:33:00,
2013-07-27 02:44:00,63.0,53.0,-100.00,North,352,1.0,2.0,71,-99.99,,,-99.99,,2013-07-27 09:44:00,
2013-07-27 02:52:00,63.0,53.0,-100.00,North,352,1.0,2.0,71,-99.99,,,-99.99,,2013-07-27 09:52:00,
2013-07-27 03:02:00,63.0,53.0,-100.00,NNW,338,2.0,3.0,70,-99.99,,,-99.99,,2013-07-27 10:02:00,
2013-07-27 03:12:00,63.0,53.0,-100.00,NNW,327,2.0,3.0,70,-99.99,,,-99.99,,2013-07-27 10:12:00,
2013-07-27 03:32:00,61.0,53.0,-100.00,NNW,332,1.0,2.0,75,-99.99,,,-99.99,,2013-07-27 10:32:00,
2013-07-27 03:43:00,62.0,53.0,-100.00,NNE,29,2.0,3.0,73,-99.99,,,-99.99,,2013-07-27 10:43:00,
2013-07-27 03:52:00,62.0,53.0,-100.00,NNE,29,2.0,3.0,73,-99.99,,,-99.99,,2013-07-27 10:52:00,
2013-07-27 04:01:00,62.0,53.0,-100.00,NNW,343,1.0,2.0,73,-99.99,,,-99.99,,2013-07-27 11:01:00,
2013-07-27 04:22:00,62.0,53.0,-100.00,NNW,333,2.0,3.0,72,-99.99,,,-99.99,,2013-07-27 11:22:00,
2013-07-27 04:32:00,61.0,53.0,-100.00,NNE,13,1.0,1.0,74,-99.99,,,-99.99,,2013-07-27 11:32:00,
2013-07-27 04:52:00,61.0,53.0,-100.00,NNW,331,1.0,3.0,74,-99.99,,,-99.99,,2013-07-27 11:52:00,
2013-07-27 05:02:00,60.0,53.0,-100.00,NNW,330,1.0,1.0,77,-99.99,,,-99.99,,2013-07-27 12:02:00,
2013-07-27 05:12:00,60.0,53.0,-100.00,NNW,330,1.0,1.0,77,-99.99,,,-99.99,,2013-07-27 12:12:00,
2013-07-27 05:43:00,60.0,52.0,-100.00,NNW,333,1.0,2.0,76,-99.99,,,-99.99,,2013-07-27 12:43:00,
2013-07-27 05:52:00,60.0,52.0,-100.00,NNW,333,1.0,2.0,76,-99.99,,,-99.99,,2013-07-27 12:52:00,
2013-07-27 06:02:00,60.0,53.0,-100.00,North,359,1.0,1.0,77,-99.99,,,-99.99,,2013-07-27 13:02:00,
2013-07-27 06:12:00,59.0,51.0,-100.00,North,356,1.0,1.0,76,-99.99,,,-99.99,,2013-07-27 13:12:00,
2013-07-27 06:22:00,60.0,52.0,-100.00,NNW,346,1.0,2.0,76,-99.99,,,-99.99,,2013-07-27 13:22:00,
2013-07-27 06:44:00,60.0,52.0,-100.00,NE,41,1.0,2.0,74,-99.99,,,-99.99,,2013-07-27 13:44:00,
2013-07-27 06:53:00,60.0,52.0,-100.00,NE,41,1.0,2.0,74,-99.99,,,-99.99,,2013-07-27 13:53:00,
2013-07-27 07:02:00,60.0,52.0,-100.00,ENE,59,0.0,1.0,74,-99.99,,,-99.99,,2013-07-27 14:02:00,
2013-07-27 07:12:00,62.0,52.0,-100.00,NE,47,1.0,2.0,69,-99.99,,,-99.99,,2013-07-27 14:12:00,
2013-07-27 07:22:00,63.0,52.0,-100.00,NE,42,1.0,1.0,67,-99.99,,,-99.99,,2013-07-27 14:22:00,
2013-07-27 07:32:00,63.0,51.0,-100.00,NE,56,1.0,2.0,66,-99.99,,,-99.99,,2013-07-27 14:32:00,
2013-07-27 07:43:00,67.0,53.0,-100.00,East,95,1.0,2.0,61,-99.99,,,-99.99,,2013-07-27 14:43:00,
2013-07-27 07:54:00,67.0,53.0,-100.00,East,95,1.0,2.0,61,-99.99,,,-99.99,,2013-07-27 14:54:00,
2013-07-27 08:02:00,68.0,53.0,-100.00,SE,127,1.0,1.0,58,-99.99,,,-99.99,,2013-07-27 15:02:00,
2013-07-27 08:12:00,69.0,53.0,-100.00,South,170,1.0,2.0,57,-99.99,,,-99.99,,2013-07-27 15:12:00,
2013-07-27 08:33:00,73.0,52.0,-100.00,ESE,113,1.0,2.0,48,-99.99,,,-99.99,,2013-07-27 15:33:00,
2013-07-27 08:53:00,77.0,51.0,-100.00,South,180,1.0,2.0,40,-99.99,,,-99.99,,2013-07-27 15:53:00,
2013-07-27 09:02:00,78.0,49.0,-100.00,SSE,162,2.0,4.0,36,-99.99,,,-99.99,,2013-07-27 16:02:00,
2013-07-27 09:12:00,79.0,47.0,-100.00,South,172,4.0,7.0,32,-99.99,,,-99.99,,2013-07-27 16:12:00,
2013-07-27 09:22:00,80.0,47.0,-100.00,South,187,6.0,9.0,31,-99.99,,,-99.99,,2013-07-27 16:22:00,
2013-07-27 09:33:00,81.0,47.0,-100.00,South,189,4.0,8.0,31,-99.99,,,-99.99,,2013-07-27 16:33:00,
2013-07-27 09:43:00,82.0,47.0,-100.00,South,183,6.0,9.0,30,-99.99,,,-99.99,,2013-07-27 16:43:00,
2013-07-27 09:53:00,82.0,47.0,-100.00,South,183,6.0,9.0,30,-99.99,,,-99.99,,2013-07-27 16:53:00,
2013-07-27 10:02:00,82.0,47.0,-100.00,South,183,6.0,13.0,29,-99.99,,,-99.99,,2013-07-27 17:02:00,
2013-07-27 10:12:00,83.0,47.0,-100.00,SSW,210,5.0,10.0,28,-99.99,,,-99.99,,2013-07-27 17:12:00,
2013-07-27 10:22:00,83.0,47.0,-100.00,South,182,5.0,10.0,28,-99.99,,,-99.99,,2013-07-27 17:22:00,
2013-07-27 10:32:00,84.0,46.0,-100.00,South,186,6.0,12.0,27,-99.99,,,-99.99,,2013-07-27 17:32:00,
2013-07-27 10:53:00,84.0,46.0,-100.00,South,178,8.0,12.0,27,-99.99,,,-99.99,,2013-07-27 17:53:00,
2013-07-27 11:12:00,85.0,47.0,-100.00,South,179,6.0,14.0,27,-99.99,,,-99.99,,2013-07-27 18:12:00,
2013-07-27 11:22:00,84.0,46.0,-100.00,South,174,8.0,15.0,27,-99.99,,,-99.99,,2013-07-27 18:22:00,
2013-07-27 11:32:00,85.0,48.0,-100.00,South,191,7.0,16.0,28,-99.99,,,-99.99,,2013-07-27 18:32:00,
2013-07-27 11:42:00,85.0,46.0,-100.00,SSW,205,7.0,15.0,26,-99.99,,,-99.99,,2013-07-27 18:42:00,
2013-07-27 11:52:00,85.0,46.0,-100.00,SSW,205,7.0,15.0,26,-99.99,,,-99.99,,2013-07-27 18:52:00,
2013-07-27 12:12:00,85.0,46.0,-100.00,South,181,10.0,20.0,26,-99.99,,,-99.99,,2013-07-27 19:12:00,
2013-07-27 12:22:00,85.0,47.0,-100.00,South,180,9.0,16.0,27,-99.99,,,-99.99,,2013-07-27 19:22:00,
2013-07-27 12:32:00,86.0,48.0,-100.00,South,180,10.0,18.0,27,-99.99,,,-99.99,,2013-07-27 19:32:00,
2013-07-27 12:43:00,85.0,47.0,-100.00,South,176,10.0,17.0,27,-99.99,,,-99.99,,2013-07-27 19:43:00,
2013-07-27 12:52:00,85.0,47.0,-100.00,South,176,10.0,17.0,27,-99.99,,,-99.99,,2013-07-27 19:52:00,
2013-07-27 13:02:00,86.0,48.0,-100.00,South,173,11.0,22.0,27,-99.99,,,-99.99,,2013-07-27 20:02:00,
2013-07-27 13:12:00,86.0,48.0,-100.00,South,173,13.0,23.0,27,-99.99,,,-99.99,,2013-07-27 20:12:00,
2013-07-27 13:22:00,86.0,48.0,-100.00,South,183,11.0,20.0,27,-99.99,,,-99.99,,2013-07-27 20:22:00,
2013-07-27 13:32:00,86.0,49.0,-100.00,South,177,13.0,21.0,28,-99.99,,,-99.99,,2013-07-27 20:32:00,
2013-07-27 13:52:00,86.0,49.0,-100.00,South,178,12.0,21.0,28,-99.99,,,-99.99,,2013-07-27 20:52:00,
2013-07-27 14:12:00,86.0,50.0,-100.00,South,179,14.0,26.0,29,-99.99,,,-99.99,,2013-07-27 21:12:00,
2013-07-27 14:33:00,87.0,50.0,-100.00,South,173,12.0,24.0,28,-99.99,,,-99.99,,2013-07-27 21:33:00,
2013-07-27 15:12:00,86.0,47.0,-100.00,SSE,168,16.0,24.0,26,-99.99,,,-99.99,,2013-07-27 22:12:00,
2013-07-27 15:32:00,87.0,45.0,-100.00,South,171,15.0,25.0,23,-99.99,,,-99.99,,2013-07-27 22:32:00,
2013-07-27 15:53:00,87.0,44.0,-100.00,South,169,13.0,25.0,22,-99.99,,,-99.99,,2013-07-27 22:53:00,
2013-07-27 16:12:00,87.0,45.0,-100.00,SSE,166,11.0,23.0,23,-99.99,,,-99.99,,2013-07-27 23:12:00,
2013-07-27 16:32:00,87.0,45.0,-100.00,South,176,9.0,20.0,23,-99.99,,,-99.99,,2013-07-27 23:32:00,
2013-07-27 16:52:00,86.0,44.0,-100.00,South,171,10.0,18.0,23,-99.99,,,-99.99,,2013-07-27 23:52:00,
2013-07-27 17:02:00,86.0,45.0,-100.00,SSE,166,10.0,19.0,24,-99.99,,,-99.99,,2013-07-28 00:02:00,
2013-07-27 17:12:00,86.0,45.0,-100.00,SSE,166,10.0,19.0,24,-99.99,,,-99.99,,2013-07-28 00:12:00,
2013-07-27 17:32:00,86.0,47.0,-100.00,SSW,205,5.0,12.0,26,-99.99,,,-99.99,,2013-07-28 00:32:00,
2013-07-27 18:12:00,83.0,51.0,-100.00,South,175,9.0,16.0,33,-99.99,,,-99.99,,2013-07-28 01:12:00,
2013-07-27 18:22:00,83.0,52.0,-100.00,South,170,9.0,18.0,34,-99.99,,,-99.99,,2013-07-28 01:22:00,
2013-07-27 18:32:00,83.0,52.0,-100.00,South,170,9.0,18.0,34,-99.99,,,-99.99,,2013-07-28 01:32:00,
2013-07-27 18:43:00,82.0,51.0,-100.00,South,185,6.0,15.0,34,-99.99,,,-99.99,,2013-07-28 01:43:00,
2013-07-27 18:53:00,82.0,51.0,-100.00,South,185,6.0,15.0,34,-99.99,,,-99.99,,2013-07-28 01:53:00,
2013-07-27 19:02:00,81.0,51.0,-100.00,South,180,7.0,14.0,35,-99.99,,,-99.99,,2013-07-28 02:02:00,
2013-07-27 19:12:00,81.0,51.0,-100.00,South,180,7.0,14.0,35,-99.99,,,-99.99,,2013-07-28 02:12:00,
2013-07-27 20:12:00,76.0,54.0,-100.00,South,180,8.0,12.0,46,-99.99,,,-99.99,,2013-07-28 03:12:00,
2013-07-27 20:22:00,75.0,54.0,-100.00,SW,217,7.0,11.0,48,-99.99,,,-99.99,,2013-07-28 03:22:00,
2013-07-27 20:32:00,75.0,54.0,-100.00,SW,235,7.0,9.0,48,-99.99,,,-99.99,,2013-07-28 03:32:00,
2013-07-27 20:52:00,74.0,54.0,-100.00,SW,226,4.0,6.0,50,-99.99,,,-99.99,,2013-07-28 03:52:00,
2013-07-27 21:02:00,74.0,55.0,-100.00,SW,215,6.0,8.0,51,-99.99,,,-99.99,,2013-07-28 04:02:00,
2013-07-27 21:12:00,73.0,54.0,-100.00,SSW,198,5.0,7.0,52,-99.99,,,-99.99,,2013-07-28 04:12:00,
2013-07-27 21:22:00,72.0,54.0,-100.00,South,181,3.0,4.0,53,-99.99,,,-99.99,,2013-07-28 04:22:00,
2013-07-27 21:32:00,73.0,53.0,-100.00,WSW,243,5.0,8.0,50,-99.99,,,-99.99,,2013-07-28 04:32:00,
2013-07-27 21:43:00,72.0,54.0,-100.00,SE,146,2.0,4.0,53,-99.99,,,-99.99,,2013-07-28 04:43:00,
2013-07-27 21:53:00,72.0,53.0,-100.00,WNW,297,2.0,8.0,51,-99.99,,,-99.99,,2013-07-28 04:53:00,
2013-07-27 22:12:00,73.0,52.0,-100.00,NW,317,2.0,5.0,47,-99.99,,,-99.99,,2013-07-28 05:12:00,
2013-07-27 22:22:00,73.0,52.0,-100.00,NW,317,2.0,5.0,47,-99.99,,,-99.99,,2013-07-28 05:22:00,
2013-07-27 22:32:00,73.0,49.0,-100.00,West,274,4.0,8.0,42,-99.99,,,-99.99,,2013-07-28 05:32:00,
2013-07-27 22:43:00,70.0,49.0,-100.00,ESE,117,1.0,3.0,47,-99.99,,,-99.99,,2013-07-28 05:43:00,
2013-07-27 22:52:00,70.0,49.0,-100.00,ESE,117,1.0,3.0,47,-99.99,,,-99.99,,2013-07-28 05:52:00,
2013-07-27 23:12:00,69.0,51.0,-100.00,SSE,168,1.0,3.0,52,-99.99,,,-99.99,,2013-07-28 06:12:00,
2013-07-27 23:22:00,69.0,49.0,-100.00,SE,142,1.0,3.0,49,-99.99,,,-99.99,,2013-07-28 06:22:00,
2013-07-27 23:32:00,69.0,49.0,-100.00,SE,143,2.0,4.0,49,-99.99,,,-99.99,,2013-07-28 06:32:00,